This is the latest recevied weather packets stored in our database for station/object DK4ARL. If no packets are shown the sender has not sent any weather packets the latest 10 day(s).
| Time | Temp. | Humidity | Pressure | Rain* | Wind** | Luminosity | Snow |
|---|---|---|---|---|---|---|---|
| 1777559365 | 18.89° C | - | 988 hPa | 0 mm | - | - | - |
| 1777557563 | 20° C | - | 988.3 hPa | 0 mm | - | - | - |
| 1777556659 | 20° C | - | 988.3 hPa | 0 mm | - | - | - |
| 1777555751 | 20.56° C | - | 988.4 hPa | 0 mm | - | - | - |
| 1777554843 | 20.56° C | - | 988.5 hPa | 0 mm | - | - | - |
| 1777553935 | 20.56° C | - | 988.6 hPa | 0 mm | - | - | - |
| 1777553026 | 20° C | - | 988.8 hPa | 0 mm | - | - | - |
| 1777552118 | 21.11° C | - | 988.9 hPa | 0 mm | - | - | - |
| 1777551209 | 20° C | - | 989 hPa | 0 mm | - | - | - |
| 1777550302 | 20.56° C | - | 989.1 hPa | 0 mm | - | - | - |
| 1777549395 | 20° C | - | 989.2 hPa | 0 mm | - | - | - |
| 1777548489 | 19.44° C | - | 989.3 hPa | 0 mm | - | - | - |
| 1777547583 | 18.89° C | - | 989.4 hPa | 0 mm | - | - | - |
| 1777546679 | 20.56° C | - | 989.5 hPa | 0 mm | - | - | - |
| 1777545776 | 18.89° C | - | 989.6 hPa | 0 mm | - | - | - |
| 1777544874 | 17.78° C | - | 989.7 hPa | 0 mm | - | - | - |
| 1777543974 | 17.78° C | - | 989.8 hPa | 0 mm | - | - | - |
| 1777543075 | 17.78° C | - | 989.8 hPa | 0 mm | - | - | - |
| 1777542178 | 17.22° C | - | 989.9 hPa | 0 mm | - | - | - |
| 1777541282 | 16.11° C | - | 989.9 hPa | 0 mm | - | - | - |
| 1777540387 | 15° C | - | 990 hPa | 0 mm | - | - | - |
| 1777538600 | 14.44° C | - | 989.9 hPa | 0 mm | - | - | - |
| 1777537708 | 14.44° C | - | 989.9 hPa | 0 mm | - | - | - |
| 1777536817 | 13.33° C | - | 989.9 hPa | 0 mm | - | - | - |
| 1777535927 | 15° C | - | 989.8 hPa | 0 mm | - | - | - |
* Rain latest hour (hover to see other rain measurements)
** Current wind speed in m/s (hover to see current wind gust speed)